Seattle, WA
on Saturday, February 9, 2013

Saturday
Previous Day Next Day
Daily Summary
 ActualAverageRecord
Temperature
Mean Temperature °F 43°F  
Max Temperature 47°F 49°F 62°F (1968)
Min Temperature 40°F 37°F 26°F (1989)
Degree Days
Heating Degree Days 21 22  
Month to date heating degree days 184 198  
Since 1 July heating degree days 2758 2847  
Cooling Degree Days 0 0  
Month to date cooling degree days 0 0  
Year to date cooling degree days 0 0  
Moisture
Dew Point 38°F   
Average Humidity 77    
Maximum Humidity 89    
Minimum Humidity 65    
Precipitation
Precipitation 0.01 in 0.13 in 2.98 in (1951)
Month to date precipitation 0.33 1.20  
Year to date precipitation 4.49 6.77  
Snow
Snow 0.00 in in 2.00 in (1985)
Month to date snowfall 0.0  
Since 1 July snowfall 0.6  
Snow Depth 0.00 in   
Wind
Wind Speed 3 mph   
Max Wind Speed 8 mph   
Max Gust Speed 9 mph   
Visibility 8 miles   
Events Rain   

Key: T is trace of precipitation, MM is missing value
Source: NWS Daily Summary
Time(PST)TemperatureDew PointHumidity Pressure Visibility Wind DirectionWind SpeedGust SpeedPrecipitationEvents Conditions
12:53 AM 41.0°F 36.0°F 82% 30.30 in 10.0 miles Calm Calm - N/A   Overcast
1:53 AM 42.1°F 36.0°F 79% 30.30 in 10.0 miles Calm Calm - N/A   Overcast
2:53 AM 41.0°F 37.0°F 86% 30.30 in 10.0 miles Calm Calm - N/A   Overcast
3:15 AM 41.0°F 37.4°F 87% 30.27 in 10.0 miles Calm Calm - N/A   Overcast
3:53 AM 41.0°F 37.0°F 86% 30.29 in 10.0 miles Calm Calm - N/A   Overcast
4:53 AM 41.0°F 36.0°F 82% 30.29 in 10.0 miles SE 3.5 mph - N/A   Overcast
5:53 AM 41.0°F 35.1°F 79% 30.29 in 10.0 miles ESE 6.9 mph - N/A   Overcast
6:53 AM 41.0°F 35.6°F 81% 30.28 in 8.0 miles SE 4.6 mph - N/A   Overcast
7:53 AM 39.9°F 36.0°F 86% 30.30 in 10.0 miles ESE 6.9 mph - N/A   Overcast
8:53 AM 41.0°F 36.0°F 82% 30.29 in 10.0 miles SSE 4.6 mph - N/A   Overcast
9:53 AM 43.0°F 37.0°F 80% 30.30 in 10.0 miles Calm Calm - N/A   Overcast
10:53 AM 45.0°F 37.0°F 74% 30.32 in 10.0 miles WNW 3.5 mph - N/A   Overcast
11:25 AM 46.4°F 37.4°F 71% 30.29 in 10.0 miles Calm Calm - N/A   Overcast
11:53 AM 46.0°F 36.0°F 68% 30.30 in 10.0 miles West 3.5 mph - N/A   Overcast
12:53 PM 45.0°F 36.0°F 71% 30.30 in 10.0 miles WSW 4.6 mph - N/A   Overcast
1:53 PM 46.0°F 36.0°F 68% 30.29 in 10.0 miles West 5.8 mph - N/A   Overcast
2:53 PM 46.0°F 36.0°F 68% 30.29 in 10.0 miles Calm Calm - N/A   Overcast
3:53 PM 44.1°F 37.9°F 79% 30.30 in 6.0 miles NNW 3.5 mph - 0.00 in   Light Drizzle
4:53 PM 43.0°F 39.0°F 86% 30.32 in 7.0 miles NE 4.6 mph - 0.00 in   Light Drizzle
5:53 PM 43.0°F 39.0°F 86% 30.32 in 9.0 miles NNE 3.5 mph - 0.00 in   Overcast
6:16 PM 42.8°F 39.2°F 87% 30.30 in 5.0 miles NNE 3.5 mph - 0.00 in   Light Drizzle
6:31 PM 42.8°F 39.2°F 87% 30.30 in 3.0 miles NNE 3.5 mph - 0.00 in   Light Drizzle
6:53 PM 43.0°F 39.9°F 89% 30.32 in 3.0 miles Calm Calm - 0.01 in   Light Drizzle
7:34 PM 42.8°F 39.2°F 87% 30.30 in 4.0 miles North 3.5 mph - 0.00 in Rain Light Rain
7:53 PM 42.1°F 39.9°F 92% 30.32 in 6.0 miles Calm Calm - 0.00 in   Overcast
8:53 PM 42.1°F 39.0°F 89% 30.33 in 7.0 miles North 4.6 mph - 0.00 in   Overcast
9:53 PM 43.0°F 39.0°F 86% 30.35 in 7.0 miles NNE 3.5 mph - N/A   Overcast
10:05 PM 42.8°F 39.2°F 87% 30.32 in 8.0 miles NE 4.6 mph - 0.00 in   Overcast
10:53 PM 42.1°F 39.0°F 89% 30.35 in 7.0 miles NNE 3.5 mph - 0.00 in   Overcast
11:18 PM 42.8°F 39.2°F 87% 30.33 in 4.0 miles NNW 3.5 mph - N/A   Overcast
11:53 PM 42.1°F 39.9°F 92% 30.36 in 7.0 miles Calm Calm - N/A   Overcast
Moon Phase
Feb. 09 Feb. 10 Feb. 17 Feb. 25 Mar. 04
Sunrise:07:23 AM (PST) Moon Rise:06:37 AM (PST)2/9
Sunset:05:24 PM (PST) Moon Set:05:15 PM (PST)2/9

Copyright © 2014 The Weather Underground, Inc.